Theta_e
298 297 297 297 297 296 297 297 297 296 294 295 294 293 294 295 291 287 288 289 288 294 294 294 296 297 297 298 298 296 295 304 300 294 295 294 294 303 304 303 305 305 306 306 305 306 308 307 308 310 310 310 309 309 309 308 308 308 307 307 306 305 304 303 304 306 307 309 307 305 304 304 304 304
298 299 298 297 297 296 295 296 296 295 294 294 294 293 292 293 293 288 288 289 289 293 293 293 296 296 297 298 298 296 294 307 300 295 293 293 296 304 302 302 302 303 304 303 302 304 306 307 308 309 310 310 310 309 308 308 308 307 307 306 305 304 303 303 304 306 307 307 306 305 304 304 303 303
299 297 296 295 295 295 296 295 295 295 294 293 293 293 294 294 293 289 289 290 291 292 294 293 294 297 296 297 294 295 295 301 300 294 293 293 303 302 300 302 302 302 302 302 304 306 306 304 307 308 310 310 309 309 309 307 306 306 306 305 304 304 302 303 304 306 307 306 306 305 304 304 303 303
297 297 296 295 295 294 294 294 294 294 295 294 293 294 294 293 292 291 287 288 291 292 292 293 294 296 295 294 293 292 295 297 302 294 293 296 301 296 295 300 301 302 302 301 302 304 304 304 305 307 307 307 307 308 306 305 305 305 304 303 303 302 301 302 303 305 306 305 305 304 303 303 303 303
297 297 296 295 295 294 295 294 295 295 294 294 294 294 293 293 291 292 289 290 292 292 292 292 294 295 295 293 293 292 293 294 295 297 293 294 294 294 295 295 299 301 301 301 300 300 301 302 305 305 305 304 304 304 302 302 303 303 303 301 300 300 301 302 301 301 304 304 304 303 302 302 301 302
298 296 296 295 295 294 295 295 295 295 293 293 293 293 294 292 293 291 290 289 289 290 291 292 293 294 293 292 294 292 292 293 295 293 294 294 293 294 295 294 295 300 301 300 300 300 300 300 301 301 300 300 300 301 300 299 299 301 300 297 296 299 301 301 300 300 302 302 302 301 301 301 301 302
296 296 297 295 295 297 296 295 294 294 293 293 294 293 294 294 293 292 290 288 288 289 291 290 291 291 293 292 293 293 294 295 294 293 294 294 295 296 295 295 295 299 300 300 300 300 300 300 299 299 299 300 300 300 300 299 299 298 299 299 299 299 299 299 298 299 301 302 301 301 300 301 301 303
296 296 295 295 295 296 294 293 293 293 293 294 294 293 293 293 293 293 292 290 289 289 290 290 292 292 291 292 292 295 294 293 293 292 294 294 294 295 296 294 295 298 300 300 300 300 300 299 299 299 299 299 300 299 298 299 299 298 299 299 299 298 298 298 297 297 299 299 299 300 300 300 301 303
296 296 296 295 295 295 294 292 292 292 292 293 294 293 292 292 293 294 293 291 290 289 288 290 290 290 290 292 293 294 293 293 292 293 293 294 294 295 296 297 298 300 300 299 300 300 299 299 299 299 299 299 299 298 298 299 299 299 299 299 299 299 298 297 297 297 297 297 297 299 300 299 300 302
297 297 296 296 295 295 294 293 292 292 291 291 292 292 291 291 291 290 290 290 290 290 289 290 291 290 290 289 290 292 292 292 293 294 295 295 295 295 296 296 297 297 296 295 297 298 298 298 299 299 299 298 298 298 298 299 300 300 299 299 299 298 298 297 297 297 297 297 297 297 298 298 299 301
297 297 296 295 295 295 294 293 293 292 291 293 291 293 291 290 290 289 288 289 289 290 290 290 291 291 292 290 290 292 292 292 292 291 293 294 295 296 295 295 296 296 296 297 299 298 298 300 299 298 298 298 299 299 299 299 300 300 299 298 298 298 297 297 297 297 297 297 296 296 296 296 297 299
296 296 296 295 295 295 294 294 293 292 291 291 291 291 290 290 290 289 289 289 289 290 290 290 290 290 290 290 290 292 290 291 292 293 291 291 292 294 294 294 293 294 295 294 295 297 297 297 297 297 297 298 299 300 299 299 300 300 299 298 297 297 297 298 297 297 297 297 296 296 295 295 295 297
295 294 294 294 294 299 302 302 299 297 297 292 291 291 291 290 290 289 289 290 289 289 290 290 290 290 290 289 289 290 288 289 289 291 291 290 293 293 292 294 294 295 293 294 294 294 294 294 294 293 293 295 298 297 299 298 300 299 298 297 297 297 297 297 297 297 297 297 296 296 296 295 295 295
293 293 293 299 306 307 307 304 301 299 300 300 295 292 291 291 290 290 289 289 289 290 290 290 289 289 289 289 289 289 289 290 290 291 291 291 292 291 291 292 292 296 293 293 293 294 295 293 293 293 293 294 295 294 294 294 297 298 297 297 297 297 297 297 297 297 297 297 296 296 295 295 295 294
293 294 297 299 306 306 306 301 299 298 297 297 297 298 297 296 291 289 289 290 290 293 291 289 289 289 289 290 290 289 290 291 291 291 291 291 291 288 286 286 292 294 294 293 291 292 294 292 292 292 293 293 294 294 294 297 298 297 297 297 297 297 297 297 297 296 296 296 296 295 295 295 295 294
296 296 297 295 295 293 295 297 297 297 296 295 295 295 296 296 296 296 294 294 291 291 289 289 290 289 289 288 289 289 289 291 292 292 290 289 288 288 286 285 287 292 294 291 290 291 294 292 292 291 293 293 293 294 296 297 297 297 297 296 296 296 296 296 296 296 296 296 295 295 295 294 294 294
296 295 294 293 293 294 301 300 293 294 294 296 295 295 294 293 291 289 291 295 297 292 291 291 289 289 289 289 291 293 293 293 292 293 292 290 288 287 287 287 285 292 293 291 289 289 292 291 291 290 293 293 293 294 296 297 297 297 297 296 296 296 296 296 296 296 295 295 295 295 295 294 294 293
296 295 294 293 292 293 296 294 292 292 291 292 292 294 294 293 298 294 291 290 293 295 293 291 291 291 291 292 291 294 294 293 293 292 292 292 291 290 290 290 291 292 293 289 287 286 291 292 290 290 292 293 293 294 295 296 296 296 296 296 296 296 296 296 295 295 295 295 295 295 295 294 293 293
295 294 293 291 290 292 295 293 292 292 291 292 293 293 294 295 294 294 295 294 293 294 293 291 292 292 292 292 292 292 293 294 294 293 293 293 292 292 291 291 291 291 292 290 287 287 290 290 290 292 292 293 292 293 295 296 296 296 296 296 295 295 295 295 295 295 295 295 295 295 294 294 293 293
294 293 291 290 288 291 295 296 293 294 294 293 293 294 293 294 295 295 301 297 296 295 293 291 291 291 291 293 293 294 295 294 292 294 293 292 291 290 289 289 289 288 292 292 289 286 288 290 289 291 292 291 291 293 293 295 296 296 296 295 295 295 295 295 295 295 295 295 295 295 294 294 293 293
293 292 292 290 289 291 294 295 291 293 296 295 295 294 292 294 296 295 295 295 294 294 292 292 292 292 291 292 292 292 292 293 293 291 291 291 288 287 286 288 286 289 290 288 289 287 287 289 288 290 292 291 290 291 292 293 295 296 295 295 295 295 295 295 295 295 294 295 295 295 295 294 293 294
294 295 300 298 291 291 293 295 293 292 296 295 293 292 292 293 292 290 291 292 292 293 293 292 292 291 291 292 292 292 292 292 294 292 290 290 288 288 287 286 285 287 288 288 291 289 287 289 286 287 290 291 291 292 292 293 294 295 294 294 295 295 295 295 294 294 294 295 295 295 295 294 294 293
296 295 302 304 298 295 296 294 293 293 296 295 294 293 291 290 290 292 289 288 289 289 288 289 291 292 294 295 293 295 295 294 297 294 292 288 288 288 288 287 285 286 288 288 290 288 288 289 288 286 286 285 289 291 292 292 292 292 291 292 293 295 295 294 294 294 294 294 294 295 295 294 294 293
297 297 296 299 295 294 294 293 292 292 293 294 291 290 290 289 290 292 288 290 289 290 292 288 290 292 291 291 290 290 290 294 298 293 291 290 291 290 287 287 286 285 284 284 290 288 286 285 288 287 286 284 284 289 291 291 291 291 291 291 291 294 294 293 292 293 293 293 294 294 294 294 294 293
299 299 298 298 297 294 294 293 292 292 292 293 292 291 291 292 292 292 290 295 298 292 292 292 291 292 292 291 290 290 289 291 292 292 290 291 291 291 289 287 286 286 288 289 292 288 287 285 286 286 286 284 285 285 289 289 291 291 292 291 290 292 290 290 291 290 292 292 293 294 294 294 294 293
298 299 300 298 298 294 294 293 292 291 291 291 295 293 291 292 291 293 293 291 291 290 291 289 289 290 290 289 290 291 291 290 293 291 290 290 290 290 291 289 288 286 288 289 293 288 287 286 285 287 285 285 287 287 285 287 289 291 291 292 292 291 289 289 289 290 290 290 291 292 293 294 294 294
299 300 300 300 299 294 294 293 292 291 290 291 292 291 290 291 290 292 292 289 288 288 289 290 289 288 288 288 288 288 289 290 289 290 290 290 289 290 292 291 290 291 292 292 293 290 287 285 285 287 287 285 284 286 286 284 287 290 290 292 291 291 291 288 289 290 290 290 290 292 293 293 293 293
301 300 299 299 295 293 293 292 292 291 290 291 290 290 290 290 290 292 291 288 288 288 288 288 288 288 286 287 286 288 290 290 289 291 291 291 289 288 290 290 292 292 291 290 290 288 288 287 288 286 285 285 285 283 285 287 287 287 287 290 291 292 291 289 289 290 290 289 289 289 289 290 293 293
300 297 296 295 294 292 292 291 291 290 290 289 289 290 289 292 290 291 290 289 288 287 287 287 288 287 288 287 289 288 289 290 289 289 292 290 288 288 288 289 290 291 294 293 290 289 288 288 288 288 285 284 285 286 284 285 284 286 287 287 288 291 290 290 290 289 290 289 288 288 288 288 290 293
295 294 293 292 292 292 291 292 291 291 290 289 289 289 290 292 289 289 289 288 288 288 287 286 286 287 287 287 289 288 288 289 290 290 289 290 291 290 290 291 291 290 290 291 290 289 288 287 287 286 287 288 287 287 285 285 286 288 288 286 287 289 290 290 289 289 289 288 288 288 288 288 289 291
291 290 291 290 290 291 291 291 292 292 291 290 290 290 290 290 290 289 289 288 288 288 287 287 287 286 287 289 290 290 289 289 290 288 289 289 290 289 289 289 291 291 293 293 292 290 288 288 287 286 287 288 289 289 287 285 284 286 288 288 287 284 287 288 290 289 288 288 288 288 288 288 288 290
293 291 290 289 290 290 291 291 291 290 291 289 288 289 289 289 289 291 292 292 288 288 288 287 287 288 288 289 290 290 289 289 290 288 288 288 288 289 289 289 289 289 290 292 293 293 292 289 288 287 286 286 286 289 287 285 285 286 286 288 288 288 288 288 288 289 288 287 288 288 288 286 286 287
289 286 287 287 287 287 287 286 289 289 289 288 288 289 288 289 289 289 289 289 289 290 289 289 288 288 288 288 289 289 289 290 289 288 287 287 289 287 287 287 288 287 288 290 291 291 291 290 290 288 288 287 287 288 285 285 288 287 285 287 286 286 288 289 287 287 287 288 287 287 288 288 287 286
288 288 287 286 285 285 285 286 286 287 288 288 288 289 289 289 289 290 289 290 290 289 289 288 287 288 288 289 290 288 288 290 289 288 289 287 286 288 286 286 287 288 287 287 289 289 290 289 289 291 290 289 290 288 288 287 286 287 287 286 284 285 288 288 288 287 286 284 283 285 287 288 288 286
288 288 287 286 284 283 284 284 285 285 286 286 287 288 288 289 289 288 289 289 288 287 286 287 288 288 288 289 289 288 288 289 290 290 287 286 286 286 286 286 286 287 287 288 288 288 287 288 288 288 289 289 290 291 290 289 286 287 287 288 287 286 287 288 287 287 286 285 284 285 286 287 288 288
287 287 287 286 285 284 284 284 285 285 286 285 286 286 286 287 287 287 288 289 289 287 287 286 286 287 287 288 288 288 288 287 287 289 288 287 286 286 285 286 287 287 286 286 287 287 286 288 286 286 286 286 286 286 289 293 290 287 285 287 288 286 287 287 286 286 286 287 285 283 284 284 286 288
287 286 287 287 287 286 286 286 286 287 287 287 287 288 287 286 286 288 289 288 289 288 289 287 287 286 286 286 286 286 286 286 285 286 286 287 286 285 285 286 285 285 285 287 287 287 286 286 285 284 284 285 285 285 287 289 289 290 286 285 287 287 285 285 286 287 287 285 286 286 283 283 285 288
287 287 287 287 287 288 287 287 286 286 287 287 288 288 288 289 289 289 289 288 287 286 288 288 287 287 287 286 286 287 286 286 286 286 286 286 285 285 285 285 286 286 285 286 286 286 285 285 285 285 285 282 283 284 285 286 287 289 289 288 286 287 285 285 286 285 286 286 285 286 284 286 287 288
289 288 287 287 287 287 287 287 287 286 287 288 287 287 287 287 288 288 288 288 289 288 288 287 287 287 287 288 287 287 286 285 285 286 286 285 286 286 286 285 285 285 284 285 286 286 285 284 286 286 286 284 282 285 283 282 285 289 288 291 286 284 286 283 284 285 285 286 287 286 285 286 288 289
289 288 288 288 288 289 290 290 289 289 289 289 289 289 288 287 287 288 288 287 287 288 288 287 287 287 287 287 287 286 287 287 286 285 285 286 286 286 286 285 284 284 283 284 285 286 286 286 287 286 286 286 286 287 284 284 285 284 285 288 291 289 285 284 284 284 285 285 285 285 287 288 288 288
288 288 289 289 290 290 291 291 291 290 291 291 290 289 289 290 289 288 288 288 287 286 287 287 287 287 287 287 287 287 287 286 285 285 285 285 285 285 285 284 282 283 283 285 285 286 287 289 287 285 285 285 284 284 283 283 285 287 287 288 290 291 291 291 285 282 282 284 283 281 283 285 283 284
288 288 289 289 289 290 291 291 291 290 290 289 289 289 289 289 289 290 288 288 288 287 286 286 287 286 286 287 287 286 287 287 286 286 285 285 285 285 285 284 284 284 282 284 287 288 289 288 286 286 285 283 282 284 283 283 283 285 286 286 287 289 290 290 291 290 287 284 282 285 285 286 281 285
288 289 290 290 290 289 289 289 288 288 288 287 287 289 288 288 288 287 287 287 286 286 286 286 286 286 286 286 286 285 286 286 286 286 286 286 286 286 286 286 286 286 285 286 286 287 287 287 286 285 284 282 280 283 283 284 283 283 284 285 287 287 287 289 289 289 289 289 290 288 284 281 278 282
290 290 290 290 288 287 286 286 286 285 286 287 287 287 287 287 287 287 286 285 286 286 286 286 286 286 286 286 286 285 285 286 286 286 286 286 286 286 286 287 286 286 285 284 285 286 285 285 285 283 283 284 281 282 284 282 284 284 283 284 283 284 286 287 285 288 288 289 290 289 289 289 288 288
288 288 287 286 286 286 286 285 285 285 286 285 286 285 285 286 285 285 285 285 286 286 286 286 286 286 286 285 285 286 286 287 287 286 286 286 286 286 286 286 286 286 286 285 283 285 285 284 284 283 282 282 280 281 283 281 281 282 282 281 284 284 284 284 286 286 285 286 288 289 289 289 289 288
Wind_Speed
5 5 4 6 5 3 3 3 4 4 4 4 5 5 8 8 8 5 3 2 2 0 0 1 2 3 3 3 3 4 4 5 6 4 4 4 4 7 10 11 11 12 12 12 12 12 13 15 14 15 16 18 19 20 20 21 21 20 20 21 21 19 19 20 23 28 34 33 31 29 27 25 24 22
4 5 4 4 6 3 4 4 3 4 3 4 5 5 4 5 9 6 7 2 2 0 1 1 1 3 4 3 4 3 4 6 5 4 4 4 4 9 10 11 12 12 12 13 14 14 14 14 16 17 18 18 19 20 21 22 24 24 23 22 19 17 17 20 24 28 34 33 30 28 27 26 25 23
5 5 5 4 4 4 4 3 3 3 3 4 5 4 5 3 6 8 6 5 2 2 0 1 1 0 1 2 3 3 3 4 4 4 4 4 8 9 7 11 12 12 12 13 14 15 15 15 14 17 18 19 19 20 21 23 23 24 23 20 17 16 16 20 23 27 33 33 30 28 26 25 26 24
5 6 6 4 5 4 4 4 4 3 2 2 4 4 6 5 5 6 5 5 4 4 2 1 2 0 1 4 5 3 3 3 5 4 4 5 7 6 6 8 11 12 12 13 12 13 13 13 15 17 18 19 19 19 19 19 20 20 18 18 17 13 15 19 23 27 32 33 30 28 27 25 24 24
5 6 6 4 4 4 5 4 4 4 3 3 3 3 5 6 3 6 5 6 4 1 0 1 1 2 1 3 2 3 4 5 5 4 4 4 4 4 5 5 9 11 12 13 13 14 14 15 15 16 16 15 16 16 15 15 16 17 17 19 17 10 15 19 21 25 31 32 29 27 26 25 24 23
4 5 6 4 3 2 5 4 4 5 4 4 4 3 5 5 4 2 4 3 3 2 1 2 2 2 1 3 1 2 4 4 4 5 5 4 3 4 5 5 6 11 12 12 13 13 14 14 15 15 16 15 15 15 16 16 17 16 18 19 16 11 14 18 21 24 29 31 28 27 25 24 24 23
4 5 5 4 4 3 5 4 4 4 4 3 5 3 3 5 4 3 4 4 3 4 1 1 1 2 2 1 2 2 1 1 1 4 5 5 5 4 4 5 5 9 11 12 12 14 14 15 15 14 15 15 15 15 16 17 17 18 19 19 17 12 12 15 18 23 27 30 28 26 25 24 24 24
6 6 6 5 5 4 6 4 5 3 4 5 5 4 3 5 4 3 4 3 4 2 3 1 0 1 1 1 1 2 1 3 4 3 5 3 3 5 5 4 5 8 11 12 12 13 14 14 14 14 15 15 15 15 16 17 17 18 19 19 17 12 12 15 17 20 23 26 26 25 25 24 24 24
6 6 6 6 5 5 7 4 5 4 5 4 5 5 3 5 3 3 4 3 3 5 3 1 1 1 1 2 1 2 5 4 2 2 4 6 5 4 4 4 4 7 11 11 12 12 13 14 15 15 15 15 15 15 16 17 18 18 19 19 17 14 13 15 17 21 23 22 23 25 25 24 24 25
4 5 5 5 5 6 7 5 4 4 5 4 5 5 4 4 4 5 3 4 5 6 3 2 1 2 2 3 1 1 3 4 5 6 5 5 4 6 8 7 4 4 4 5 7 8 10 12 15 15 15 15 14 15 16 17 18 18 18 19 18 15 14 15 18 20 22 22 22 24 23 23 23 24
4 4 5 5 5 6 6 6 6 6 4 5 4 4 5 3 5 5 3 4 5 4 4 1 0 1 1 1 3 3 3 1 1 4 7 7 6 6 7 8 7 4 5 8 12 11 10 11 10 12 14 14 14 15 16 17 18 17 17 18 18 16 15 16 18 20 22 21 21 21 20 21 23 23
4 4 4 5 5 6 6 6 5 6 6 4 4 2 4 4 5 5 4 5 5 5 3 2 1 0 0 4 2 4 3 5 3 2 2 6 7 8 7 4 5 6 5 7 9 9 9 9 12 13 13 14 15 16 14 16 17 17 17 18 18 17 16 16 18 20 22 22 21 21 21 20 21 23
3 4 4 4 4 5 7 8 7 6 7 6 5 2 3 4 5 4 4 5 5 4 4 3 1 2 2 1 2 5 3 3 3 3 1 3 5 5 7 9 5 2 3 6 7 8 5 6 8 7 8 9 11 12 14 11 14 17 17 18 18 17 17 16 18 19 22 23 20 21 21 22 21 21
2 4 4 4 9 9 9 8 8 8 6 5 6 7 6 6 6 5 5 5 4 4 4 2 2 3 1 1 1 2 3 3 3 4 4 5 6 5 6 6 3 2 3 5 7 9 5 4 8 7 8 9 8 7 8 9 13 17 18 18 18 18 17 17 17 18 20 22 22 22 22 22 23 22
4 3 3 4 6 7 7 6 8 8 8 7 7 8 8 7 8 6 4 3 3 3 2 3 2 2 1 2 2 3 5 3 3 3 3 4 4 3 4 5 9 1 5 5 6 9 7 4 7 8 8 8 8 8 9 15 17 18 17 17 17 18 18 17 17 18 20 21 21 21 22 22 25 23
6 5 5 3 4 5 8 9 9 12 16 16 15 12 10 9 6 5 6 4 2 2 4 4 3 3 2 2 1 3 1 4 5 4 3 2 2 4 3 3 4 6 5 6 4 8 7 4 6 8 8 8 7 9 13 17 17 18 18 16 17 18 18 18 18 18 19 20 21 21 21 22 22 22
7 7 8 8 7 7 13 10 8 8 9 11 13 11 9 7 7 5 4 4 3 5 4 3 3 4 3 2 3 3 1 1 3 3 4 2 2 2 4 5 3 7 3 4 4 5 7 4 7 8 8 7 7 9 12 16 17 18 18 17 16 17 18 18 18 18 19 20 21 21 21 21 22 22
10 11 10 8 7 7 7 7 7 5 5 5 4 3 4 4 5 6 6 6 6 7 5 4 3 4 5 4 3 2 1 2 3 2 4 3 3 4 4 5 6 7 2 2 2 5 8 3 5 7 9 7 9 9 13 16 16 18 19 18 17 17 18 18 18 19 19 20 21 21 21 21 21 22
9 7 6 7 7 7 8 7 9 8 7 6 5 4 3 2 2 2 3 5 6 6 5 5 5 4 5 4 5 4 3 5 5 3 5 4 3 5 5 5 5 6 2 1 1 3 8 4 5 7 8 8 9 9 11 15 16 17 18 18 18 17 17 18 18 19 19 20 21 21 21 21 22 22
7 7 6 6 7 8 8 10 12 8 6 6 5 4 2 1 0 2 3 5 7 7 7 6 6 5 6 6 5 5 4 3 2 2 1 1 1 2 4 4 5 4 3 0 1 2 5 4 4 7 7 7 9 10 8 13 16 17 17 18 18 18 17 17 18 19 19 19 20 21 21 22 23 22
7 7 6 7 7 6 7 7 10 8 8 4 4 4 3 2 1 2 2 4 7 11 9 8 8 7 7 8 10 10 10 6 3 2 1 4 3 1 4 4 4 6 3 1 1 1 5 5 4 7 8 7 7 7 8 9 13 16 17 17 18 18 17 17 17 19 19 18 18 20 21 22 23 23
6 7 13 9 6 5 4 5 9 8 6 4 4 4 4 2 2 3 2 2 1 3 6 6 7 8 9 9 10 11 9 6 6 5 3 3 3 1 1 2 3 6 4 2 1 4 4 5 2 4 7 8 5 7 7 9 11 12 12 16 17 17 17 17 17 18 19 19 18 17 20 21 21 13
6 6 9 11 8 6 5 9 10 10 7 4 5 6 5 4 4 6 4 4 2 1 1 1 1 3 4 4 4 4 4 6 8 6 5 3 3 3 3 2 2 5 4 2 1 3 5 6 3 2 6 6 7 6 7 9 9 8 8 10 12 15 16 15 16 17 18 19 18 16 16 19 18 11
5 6 5 6 10 11 10 11 11 11 11 7 5 4 5 4 6 5 3 3 2 2 1 2 2 3 3 4 3 3 2 3 4 6 5 5 5 4 4 2 1 1 3 2 0 3 3 0 5 0 2 2 5 8 8 10 9 8 7 9 9 13 13 12 12 16 17 18 19 16 15 16 16 10
8 7 7 6 8 12 12 12 12 12 13 11 6 6 6 8 4 6 5 4 5 2 1 1 2 4 4 3 2 2 3 3 2 3 4 5 6 6 4 3 1 4 7 5 3 1 2 1 4 3 3 1 4 4 8 8 10 8 9 8 8 10 8 8 7 9 12 16 17 18 16 15 16 12
7 8 8 7 8 13 13 13 12 13 13 14 7 8 10 6 8 7 4 3 3 1 1 2 4 3 3 4 4 5 4 3 3 3 4 5 6 6 5 5 3 2 5 3 6 1 2 3 2 3 3 3 7 4 6 8 8 9 9 9 9 9 6 8 9 9 8 9 10 12 15 16 12 14
10 8 7 7 10 14 14 13 13 12 13 11 8 11 9 8 9 6 3 3 3 2 2 2 5 5 3 3 3 4 4 5 3 4 4 4 3 3 4 5 6 6 7 4 1 2 3 3 2 1 3 2 4 7 5 4 7 8 11 11 11 9 7 7 9 10 8 9 9 15 14 13 15 14
8 7 7 7 10 12 13 13 12 12 12 9 12 10 9 9 7 3 3 3 3 2 2 3 4 6 3 3 5 5 4 4 4 5 5 6 3 3 5 5 6 6 7 6 3 3 4 3 3 3 3 4 5 4 6 7 7 7 8 11 10 10 10 7 8 10 9 8 8 9 9 10 9 12
7 8 11 10 10 11 11 11 10 8 9 10 8 8 8 7 4 4 5 4 3 3 5 5 5 5 6 5 5 4 4 4 3 3 5 4 3 3 4 4 5 5 4 4 4 4 5 4 4 3 2 3 3 5 3 7 5 7 6 7 10 12 10 8 8 9 10 10 9 9 8 8 9 8
7 7 7 8 7 7 7 6 5 6 7 9 8 7 7 5 5 5 5 3 5 6 5 4 6 6 4 4 5 4 3 4 6 2 2 5 6 3 5 7 7 4 5 5 4 4 4 4 3 2 5 5 2 4 4 4 7 9 7 6 7 10 8 11 10 9 10 11 10 8 8 7 7 7
5 6 6 5 5 4 7 7 5 5 4 4 4 5 5 5 5 5 5 6 6 6 5 5 5 6 6 4 4 5 3 5 5 2 2 3 6 3 1 1 5 6 8 7 6 1 2 2 2 1 3 7 7 5 4 2 6 8 9 8 6 5 9 9 11 10 9 10 10 7 7 8 8 7
4 4 4 5 3 3 3 2 2 2 3 4 4 5 5 6 5 4 4 3 3 4 4 4 4 5 4 5 5 4 5 6 6 2 2 2 5 2 1 2 4 4 6 7 8 5 1 1 1 2 3 3 4 8 5 4 6 6 8 8 8 9 7 8 9 11 10 8 9 12 9 6 7 7
3 4 3 3 2 2 3 3 3 4 4 4 5 5 5 5 5 5 5 6 6 6 5 6 6 6 5 6 4 3 5 6 6 1 2 2 4 3 1 3 5 5 5 7 6 8 6 2 1 2 4 4 6 6 4 7 7 6 7 8 7 8 9 9 7 7 10 11 11 10 11 8 6 6
4 4 5 4 4 3 3 4 4 4 5 5 5 5 5 6 6 6 5 6 6 5 5 6 5 6 5 6 6 4 6 7 6 2 4 3 2 1 2 3 6 5 3 5 6 7 5 4 6 5 2 3 4 6 6 4 6 7 7 7 5 7 8 8 9 8 5 2 4 9 10 11 8 7
5 5 6 6 5 5 5 5 6 5 5 5 5 5 5 5 6 6 5 6 4 4 4 6 5 5 5 6 6 5 6 6 7 5 1 2 3 4 3 4 6 6 6 6 7 6 4 6 6 6 5 5 7 6 5 7 3 6 6 7 5 6 8 8 8 9 8 6 5 8 10 10 11 8
6 6 6 6 6 6 6 6 6 6 6 6 6 5 4 5 6 5 6 5 4 5 5 5 5 5 5 6 6 6 6 5 5 5 5 3 3 3 2 5 5 6 5 6 8 5 4 6 5 6 7 8 7 7 10 4 8 1 4 7 8 8 7 8 7 6 7 10 7 6 7 8 11 10
6 6 6 7 6 7 7 6 6 6 6 6 6 6 6 5 5 6 5 1 4 5 6 5 6 6 6 6 6 5 5 5 6 4 4 5 3 3 3 5 5 5 5 7 6 5 2 3 3 4 5 7 7 8 8 7 3 3 2 3 8 6 7 8 8 9 8 6 8 7 5 5 8 10
7 7 7 7 7 7 7 6 6 6 6 5 6 5 5 5 5 4 2 3 5 5 5 5 6 6 6 6 5 6 5 4 4 5 6 4 3 4 4 6 6 6 6 7 6 5 2 3 3 1 0 3 7 7 8 6 7 4 3 4 6 7 5 7 9 9 10 7 4 7 6 7 8 8
7 7 7 7 7 6 7 7 7 7 6 5 5 6 6 5 5 6 4 6 5 6 5 5 6 6 5 5 6 6 6 5 4 6 6 5 5 5 4 3 5 5 3 7 6 6 2 2 3 3 2 3 4 6 4 5 6 9 2 5 4 4 7 5 7 7 7 9 9 7 4 6 8 8
7 6 6 7 7 6 6 6 6 7 6 6 7 7 7 7 7 6 6 6 5 5 5 5 5 5 5 5 5 4 3 5 7 6 6 5 4 5 5 3 4 4 3 6 6 6 6 6 4 4 4 6 7 6 4 5 6 7 8 4 6 2 4 5 5 6 7 7 6 7 10 9 9 9
6 6 7 6 6 6 6 6 5 5 6 6 6 6 6 6 7 7 7 6 5 6 6 5 4 5 5 4 4 5 6 6 6 4 4 4 4 3 4 2 3 3 4 6 6 6 8 6 3 4 4 4 4 1 0 2 6 7 8 7 1 2 6 6 4 3 4 5 5 6 6 7 6 7
6 7 6 5 6 6 5 5 6 6 6 5 6 6 6 6 6 8 7 6 6 4 4 5 5 5 5 4 4 5 7 6 6 5 5 5 4 4 3 3 5 4 4 6 7 7 7 1 3 4 3 3 1 2 4 4 6 7 7 7 8 2 2 6 8 7 5 4 4 7 6 6 2 7
6 6 6 6 5 5 5 6 6 6 6 6 6 6 5 6 6 6 6 5 4 4 5 5 4 3 5 4 5 6 5 4 4 5 5 5 3 3 5 5 6 6 6 7 7 6 7 6 4 4 3 1 1 0 3 6 5 5 5 7 8 8 7 4 8 7 4 7 5 1 1 1 2 7
6 6 6 5 5 6 6 6 6 6 6 6 6 6 5 6 6 6 6 5 5 5 4 4 4 4 5 5 4 4 4 6 5 5 5 4 4 5 5 6 6 6 6 6 6 7 6 5 3 2 3 3 1 0 5 4 6 5 6 6 5 6 9 8 5 7 8 4 3 4 6 2 5 7
5 6 6 6 6 6 6 7 7 6 7 6 5 6 6 6 6 5 5 5 5 5 5 5 5 6 6 4 5 5 6 5 6 6 4 3 5 4 4 5 5 6 7 6 4 7 6 4 3 1 1 1 1 2 4 3 4 5 5 4 7 6 6 6 8 8 7 7 8 13 12 8 5 5
Wind_Direction
124 113 121 122 128 123 115 99 104 108 96 115 147 164 160 159 141 159 150 216 170 306 232 102 316 66 34 44 24 35 19 24 32 17 10 354 340 339 348 352 352 353 349 348 342 338 336 336 331 326 319 312 315 318 316 315 312 311 314 316 318 318 321 325 328 331 336 335 332 330 327 324 321 315
123 117 106 117 115 132 111 116 111 97 108 112 121 134 151 156 154 162 149 183 201 156 301 203 295 15 19 34 30 34 6 11 30 11 359 345 332 345 351 352 349 348 345 344 341 339 339 334 333 330 326 320 315 315 317 318 318 316 315 314 312 312 318 325 328 331 336 335 332 330 328 325 322 317
127 126 123 121 124 134 120 110 96 96 100 107 107 104 105 104 136 136 122 121 255 159 127 286 261 322 355 22 58 18 351 2 16 5 347 333 342 354 347 347 344 340 339 340 338 339 338 336 328 329 329 328 321 316 319 323 320 319 316 308 302 308 317 323 328 332 335 335 331 330 329 325 322 320
131 131 135 148 141 133 113 114 121 121 108 115 99 98 95 95 111 113 111 117 159 217 193 260 278 202 128 38 40 354 347 356 7 353 341 336 348 353 344 336 334 334 336 336 335 336 334 333 333 332 334 332 326 322 319 317 315 316 310 306 300 305 313 323 330 333 335 334 332 330 327 326 323 319
138 143 144 156 145 133 121 131 122 115 117 85 83 93 93 94 91 103 103 114 132 328 145 275 291 314 155 35 9 15 2 358 346 345 336 340 346 341 335 326 324 329 330 333 334 333 335 336 334 335 332 329 323 318 316 315 314 316 317 313 305 302 310 324 332 331 333 335 333 330 327 325 323 320
153 146 144 152 149 142 125 129 124 136 128 120 99 95 108 109 84 103 102 125 121 172 324 0 330 11 20 67 327 55 8 347 339 345 340 333 333 334 331 330 320 321 328 329 328 332 333 333 332 331 329 327 326 324 319 316 316 319 322 318 309 295 309 324 332 330 333 337 334 330 328 325 322 320
153 144 149 157 144 127 109 113 119 117 116 111 110 114 103 96 90 92 119 117 117 136 118 257 343 348 325 96 335 341 344 325 295 327 343 336 326 331 325 323 319 316 321 325 330 332 331 330 328 326 325 326 327 324 319 316 319 323 325 322 314 296 307 324 327 331 332 337 334 331 328 325 322 320
164 160 147 159 148 131 117 124 114 109 114 113 113 100 81 97 89 77 89 107 135 160 119 350 132 285 14 315 284 300 336 16 345 335 312 303 309 323 327 322 309 314 320 328 331 327 326 326 325 325 326 327 326 321 316 317 323 327 326 323 315 296 306 321 325 329 332 333 332 330 329 327 322 318
165 160 154 156 146 132 119 122 119 125 112 115 110 107 99 98 94 70 81 89 99 121 131 149 273 295 292 270 305 21 8 335 343 320 332 325 322 325 306 299 303 311 325 327 327 325 326 327 327 326 325 326 322 317 316 320 325 329 328 322 314 298 304 317 323 330 334 332 331 332 331 329 324 321
169 156 150 152 148 135 132 138 129 125 123 115 108 108 104 108 100 96 74 87 100 104 109 125 46 354 17 341 322 333 13 346 338 345 339 329 336 346 343 337 332 332 319 317 320 327 329 325 324 321 322 321 317 318 322 324 327 328 327 324 315 302 304 313 320 329 334 333 331 329 327 327 326 325
166 149 144 147 148 139 140 143 145 133 124 122 126 136 131 130 109 105 103 99 97 106 114 66 41 338 331 34 325 314 338 283 338 356 340 343 336 346 345 327 329 330 325 321 327 329 326 319 321 321 319 320 324 328 329 329 327 326 326 325 320 308 304 310 319 327 332 333 331 328 326 325 326 325
148 139 142 147 154 149 152 144 150 136 131 123 117 143 124 123 109 113 117 99 107 115 105 123 121 141 187 359 306 297 344 1 340 48 16 316 323 332 324 292 310 317 347 334 329 327 332 331 327 327 327 328 332 331 331 327 324 323 326 328 324 314 306 310 318 325 331 333 330 329 327 325 326 326
119 128 145 153 155 155 152 149 148 149 145 135 135 177 135 126 120 119 116 131 130 137 132 138 162 111 60 82 357 333 342 333 288 297 358 287 304 317 325 318 317 281 334 320 319 317 325 318 322 325 328 325 331 328 328 319 317 320 327 329 329 322 313 313 318 324 330 333 330 330 327 328 328 327
126 148 152 165 159 145 135 131 138 148 158 156 153 165 160 145 139 142 147 157 150 130 118 146 137 74 353 292 232 252 249 255 282 320 343 334 312 333 322 299 280 329 353 342 335 316 321 343 321 331 327 319 328 323 319 314 318 321 327 332 331 327 320 317 319 323 329 332 333 331 331 330 330 329
145 138 137 127 119 113 107 120 140 149 153 149 154 164 161 157 150 146 144 155 162 150 160 184 151 129 296 277 195 224 269 263 261 281 294 288 313 343 348 332 317 54 22 347 337 320 323 2 331 320 318 317 325 319 311 313 320 323 329 332 331 328 325 322 321 323 329 332 332 332 332 331 332 330
146 139 115 95 109 138 170 174 172 169 165 163 167 169 170 166 153 158 153 163 201 199 169 190 187 141 182 244 212 248 232 294 316 306 316 265 279 313 330 293 300 291 33 345 327 308 306 338 330 331 320 317 313 308 311 318 324 325 327 331 330 329 327 324 323 323 330 334 334 333 333 334 333 332
152 150 148 157 176 190 188 182 181 178 172 164 161 163 160 159 157 165 188 188 178 180 192 167 181 181 176 203 244 202 207 183 270 302 324 296 266 228 272 264 265 303 9 349 322 311 311 356 334 322 311 315 314 313 316 319 323 323 327 330 331 330 328 326 325 325 329 335 337 336 337 336 334 334
168 166 167 177 183 193 192 194 187 174 163 153 142 158 188 180 178 185 204 216 218 206 195 176 185 213 162 191 226 211 161 261 262 290 284 276 291 288 262 273 270 276 313 294 330 315 315 359 343 319 312 321 319 316 311 317 322 324 326 330 331 330 328 328 328 328 329 334 338 340 340 338 337 337
173 173 177 183 187 189 197 196 191 176 167 158 164 181 198 185 186 192 204 211 212 217 210 195 207 188 197 217 240 256 205 224 238 210 237 256 260 285 289 278 247 281 259 167 97 301 299 336 347 316 318 325 318 310 312 318 324 325 326 329 330 329 329 329 330 330 331 333 336 340 342 342 342 341
173 177 186 183 194 200 204 205 189 174 155 154 162 189 199 152 215 244 229 243 225 218 207 201 205 202 203 213 231 242 243 247 231 235 281 317 262 310 326 330 311 317 289 105 153 280 296 306 347 314 314 325 318 313 315 318 324 325 326 328 329 330 330 333 334 334 333 333 336 339 345 346 345 343
176 182 191 194 196 206 218 200 179 177 153 159 173 183 180 170 140 239 280 304 240 220 211 213 221 226 233 238 252 264 261 245 201 118 2 287 173 51 354 314 335 301 310 296 203 239 295 320 353 319 320 322 298 302 309 315 322 325 325 327 329 329 331 336 337 336 334 335 336 340 345 349 347 343
186 191 197 200 196 206 215 175 185 196 174 173 178 174 166 161 204 249 269 307 296 260 239 247 247 248 257 260 261 265 268 244 183 151 214 239 131 272 204 279 274 288 307 260 202 357 279 303 334 331 309 324 303 313 314 320 320 325 325 326 327 327 333 336 337 338 336 335 336 341 347 347 347 341
198 208 211 209 198 202 187 178 191 199 197 195 190 187 165 186 206 222 202 211 202 277 1 331 350 317 289 270 258 261 266 222 189 195 212 160 170 237 275 251 307 343 305 270 174 10 302 348 317 60 346 339 303 303 317 321 316 319 323 324 324 327 334 334 337 338 336 336 336 342 348 348 347 346
211 217 225 231 215 204 196 196 193 194 200 199 201 169 178 188 226 213 182 225 188 216 220 253 262 256 262 268 273 265 181 200 201 206 201 192 191 211 255 221 185 213 246 266 168 29 273 104 303 152 176 247 297 308 320 319 318 312 320 329 326 326 331 335 337 336 337 337 335 337 346 351 352 345
193 207 215 232 214 199 203 205 197 197 205 206 189 192 192 203 195 146 178 210 200 208 252 282 293 295 300 293 287 336 358 317 279 239 221 203 195 199 229 260 225 249 248 250 176 89 266 274 290 327 322 218 238 310 304 310 311 324 329 328 323 325 331 329 333 335 338 337 335 336 343 349 353 355
202 207 208 220 209 197 203 210 202 202 204 210 200 207 214 183 155 174 187 164 165 200 271 305 307 305 317 327 335 331 325 313 292 272 245 215 207 209 204 207 218 242 283 235 164 177 229 299 230 320 297 360 304 310 310 313 301 319 327 324 331 326 329 324 333 339 341 336 335 336 334 337 351 353
205 208 205 214 201 196 203 210 211 209 210 206 215 216 197 185 185 165 151 148 155 198 235 280 286 287 293 300 296 306 305 296 287 288 292 276 237 229 234 232 215 217 249 270 242 187 185 251 202 175 277 260 272 303 309 306 311 323 328 333 329 322 329 340 338 336 340 342 332 331 333 333 341 353
202 198 202 207 203 199 203 207 209 212 208 206 215 207 191 181 175 169 155 171 192 200 234 265 271 275 257 242 272 257 242 262 291 295 287 283 257 241 253 245 241 241 251 254 241 200 198 233 276 192 199 248 273 293 302 294 295 310 318 320 324 330 340 340 334 335 339 340 338 338 336 339 348 348
200 209 202 195 195 199 203 208 213 224 224 223 217 197 181 173 169 182 191 197 185 218 240 238 251 263 255 227 241 259 279 283 282 285 295 280 259 253 268 260 242 242 238 241 219 206 202 215 258 287 240 199 241 280 263 281 288 301 322 329 332 326 315 330 344 339 334 342 344 338 335 329 337 347
187 195 198 204 204 193 191 183 195 207 213 212 207 186 174 182 187 190 190 194 194 232 239 238 242 250 263 262 249 259 270 285 282 305 303 327 308 352 1 346 319 285 235 225 209 204 206 212 225 267 314 301 243 279 283 305 313 310 319 330 309 310 328 342 336 337 345 340 337 332 326 337 329 341
159 169 174 174 171 170 192 201 207 208 177 166 183 189 193 198 197 192 196 200 209 225 237 245 252 257 258 272 295 282 296 288 279 190 227 282 268 298 335 330 298 315 316 323 316 217 201 203 203 182 329 311 319 302 296 248 279 311 317 324 341 328 298 320 334 342 344 335 326 327 341 338 338 343
148 137 111 94 86 98 86 137 144 183 182 191 186 199 199 205 200 199 196 210 217 233 217 243 258 278 272 282 273 294 290 273 278 251 206 206 268 282 337 343 286 296 310 314 315 311 160 201 182 196 199 239 275 302 327 305 293 294 310 319 330 315 317 331 332 334 338 324 343 345 338 340 336 335
98 103 110 98 89 99 133 148 183 193 190 208 205 205 205 204 197 188 187 214 227 222 211 238 244 259 275 272 269 264 285 274 271 237 223 255 231 299 140 222 263 284 297 304 303 305 316 322 243 247 242 232 221 243 274 321 312 327 323 314 327 320 325 331 334 330 334 349 348 335 333 341 344 332
148 169 173 182 173 170 162 183 205 210 207 209 210 218 210 202 202 204 210 220 232 214 217 233 238 253 257 271 271 266 260 284 281 246 192 253 209 240 251 282 283 279 261 272 287 288 306 324 340 323 294 266 237 210 207 232 277 303 307 308 314 323 316 325 332 335 341 315 304 331 340 333 337 350
180 190 198 213 202 202 195 201 210 210 209 217 218 223 211 213 212 211 217 229 220 221 234 240 240 250 242 255 264 262 259 259 283 302 259 216 234 230 246 255 276 286 292 298 297 299 332 326 346 343 336 356 353 312 215 202 259 279 314 315 326 332 323 330 328 329 331 340 3 352 332 335 338 339
201 198 206 212 217 208 210 219 209 204 207 210 210 215 218 232 223 213 234 224 194 224 229 239 242 238 237 242 253 253 257 259 270 274 290 259 261 282 258 244 254 271 273 269 275 297 330 323 13 2 347 340 352 345 331 203 166 282 342 321 330 336 325 328 326 313 341 346 359 359 343 326 320 325
205 211 213 216 219 210 220 216 211 214 207 205 205 200 209 226 228 218 233 171 206 228 228 225 239 234 236 236 246 249 250 237 255 258 260 272 262 242 259 272 251 255 281 274 266 285 316 317 14 30 359 339 348 329 302 307 289 199 175 9 328 330 329 324 329 343 343 346 333 354 322 301 310 320
211 207 213 218 219 220 221 220 214 221 219 213 210 206 210 225 239 242 195 186 227 229 231 225 243 242 239 228 228 248 243 224 228 255 259 257 253 269 243 258 282 286 278 284 290 287 254 254 299 253 23 322 323 318 315 310 325 324 147 51 329 310 332 343 348 340 327 333 325 315 320 331 325 323
208 206 210 217 220 217 219 220 210 218 216 206 204 208 217 224 231 248 227 224 233 233 233 231 242 241 240 233 221 228 237 225 219 233 240 237 217 230 268 257 278 284 313 298 306 304 310 295 286 255 204 257 266 268 258 277 282 291 306 341 264 310 331 355 322 321 325 329 334 317 258 238 246 261
213 207 212 210 221 215 224 217 214 213 213 207 205 204 203 215 223 228 234 233 234 239 230 238 244 246 242 238 235 229 232 218 218 214 218 236 229 218 239 246 246 275 298 282 295 298 304 290 276 263 248 230 241 248 245 242 267 280 289 295 212 286 295 320 314 316 316 315 320 342 346 349 6 350
209 211 224 213 218 216 221 225 224 218 219 216 217 214 216 218 221 222 221 223 213 216 222 229 222 221 235 237 217 196 212 221 223 234 237 241 242 231 243 240 272 233 235 273 272 283 277 260 240 245 260 269 282 286 43 359 324 317 322 315 123 226 267 266 251 267 266 293 319 317 352 345 330 345
203 218 221 205 212 219 215 215 214 219 223 212 212 215 221 223 226 228 223 221 218 218 219 232 229 228 246 244 219 197 207 209 213 232 228 221 240 263 237 203 251 256 207 252 260 258 268 0 350 305 273 278 16 48 328 285 283 297 301 301 311 317 195 266 266 250 250 266 351 357 337 345 18 13
200 218 222 217 212 213 213 219 218 213 221 211 213 217 217 226 231 230 227 227 220 209 223 242 253 254 261 250 206 201 203 219 223 229 219 206 204 247 274 263 242 254 241 255 267 277 289 307 319 319 308 53 65 132 279 285 274 278 290 313 318 325 325 342 328 319 300 280 246 317 287 240 20 6
206 210 223 209 206 212 215 216 220 216 217 217 220 216 214 218 223 223 217 221 218 225 227 236 252 247 256 244 197 189 198 223 221 223 239 235 216 222 236 265 273 272 267 262 284 286 287 296 280 276 340 319 276 334 282 297 303 284 281 287 300 328 328 331 341 336 350 35 100 59 7 256 238 254
206 210 211 211 209 209 211 212 213 217 216 222 218 216 215 214 223 227 225 224 228 228 230 237 245 249 244 224 182 207 228 218 214 211 210 236 250 242 246 257 273 281 276 264 263 286 296 300 292 280 211 247 211 223 260 248 259 293 299 323 319 320 322 331 339 349 349 335 346 6 2 11 15 357